Weather History for CWKG - December, 2012

Change the Weather History Date:

Wednesday, December 19, 2012

  Actual Average Record
Temperature  
Mean Temperature 35 °F -  
Max Temperature 39 °F - - ()
Min Temperature 31 °F - - ()
Degree Days  
Heating Degree Days 30    
Moisture  
Dew Point 34 °F    
Average Humidity 97    
Maximum Humidity 100    
Minimum Humidity 92    
Precipitation  
Precipitation 0.31 in - - ()
Sea Level Pressure  
Sea Level Pressure 29.69 in    
Wind  
Wind Speed 11 mph ()    
Max Wind Speed 17 mph    
Max Gust Speed 36 mph    
T = Trace of Precipitation, MM = Missing Value Source: Averaged Metar Reports

Daily Weather History Graph

Daily Weather History Graph

Search for Another Location

Airport or City:

Trip Planner

Search our weather history database for the weather conditions in past years. The results will help you decide how hot, cold, wet, or windy it might be!

Date:

Astronomy

Dec. 19, 2012 Rise Set
Actual Time 7:53 AM AST 4:43 PM AST
Civil Twilight 7:19 AM AST 5:16 PM AST
Nautical Twilight 6:42 AM AST 5:53 PM AST
Astronomical Twilight 6:07 AM AST 6:29 PM AST
Moon 11:45 AM AST (12/19) No Moon Set
Length of Visible Light 9h 57m
Length of Day
8h 50m
Waxing Crescent, 44% of the Moon is Illuminated
Dec 19
Waxing Crescent
Dec 20
First Quarter
Dec 28
Full
Jan 4
Last Quarter
Jan 11
New

Hourly Weather History & Observations

Time (AST) Temp. Windchill Dew Point Humidity Pressure Visibility Wind Dir Wind Speed Gust Speed Precip Events Conditions
12:00 AM 40.3 °F 32.6 °F 39.4 °F 97% 29.70 in - SE 13.8 mph 26.5 mph 0.01 in   Unknown
1:00 AM 40.1 °F 32.0 °F 39.0 °F 96% 29.68 in - SE 15.0 mph 26.5 mph N/A   Unknown
2:00 AM 40 °F - 39 °F 94% 29.65 in - SE 17.3 mph - -  
2:00 AM 39.9 °F 31.1 °F 38.8 °F 96% 29.65 in - SE 17.3 mph 28.8 mph 0.01 in   Unknown
3:00 AM 39.6 °F 31.3 °F 38.7 °F 97% 29.64 in - ESE 15.0 mph 28.8 mph N/A   Unknown
4:00 AM 39.6 °F 30.6 °F 38.5 °F 96% 29.63 in - SE 17.3 mph 35.7 mph 0.02 in   Unknown
5:00 AM 39.2 °F 30.8 °F 38.3 °F 97% 29.62 in - SE 15.0 mph 27.6 mph N/A   Unknown
6:00 AM 38.8 °F 30.4 °F 37.8 °F 96% 29.60 in - SE 15.0 mph 25.3 mph N/A   Unknown
7:00 AM 36.3 °F 26.8 °F 35.2 °F 96% 29.60 in - ESE 16.1 mph 27.6 mph 0.06 in   Unknown
8:00 AM 36 °F - 35 °F 96% 29.62 in - ESE 11.5 mph - -  
8:00 AM 35.8 °F 27.8 °F 35.2 °F 98% 29.62 in - ESE 11.5 mph 19.6 mph 0.13 in   Unknown
9:00 AM 34.7 °F 25.9 °F 34.0 °F 97% 29.63 in - ESE 12.7 mph 23.0 mph 0.06 in   Unknown
10:00 AM 31.5 °F 24.2 °F 31.8 °F 100% 29.62 in - ESE 8.1 mph - 0.05 in   Unknown
11:00 AM 31.3 °F 23.3 °F 31.6 °F 100% 29.61 in - ESE 9.2 mph - 0.05 in   Unknown
12:00 PM 33.3 °F 24.6 °F 31.3 °F 92% 29.60 in - ESE 11.5 mph 23.0 mph 0.07 in   Unknown
1:00 PM 33.6 °F 25.0 °F 32.9 °F 97% 29.60 in - ESE 11.5 mph 27.6 mph 0.02 in   Unknown
2:00 PM 33 °F - 32 °F 96% 29.62 in - East 8.1 mph - -  
2:00 PM 31.3 °F 23.9 °F 31.6 °F 100% 29.62 in - East 8.1 mph - 0.05 in   Unknown
3:00 PM 32.9 °F 25.9 °F 31.6 °F 95% 29.64 in - East 8.1 mph - 0.05 in   Unknown
4:00 PM 33.3 °F 25.7 °F 31.3 °F 92% 29.68 in - East 9.2 mph 17.3 mph 0.02 in   Unknown
5:00 PM 31.5 °F 23.5 °F 31.8 °F 100% 29.71 in - East 9.2 mph 20.7 mph 0.01 in   Unknown
6:00 PM 31.5 °F 24.2 °F 31.8 °F 100% 29.75 in - East 8.1 mph 17.3 mph N/A   Unknown
7:00 PM 31.8 °F 24.6 °F 32.0 °F 100% 29.79 in - East 8.1 mph - 0.04 in   Unknown
8:00 PM 32 °F - 32 °F 99% 29.83 in - East 5.8 mph - -  
8:00 PM 32.0 °F 26.4 °F 31.8 °F 99% 29.83 in - East 5.8 mph - 0.07 in   Unknown
9:00 PM 32.0 °F 24.8 °F 31.8 °F 99% 29.86 in - East 8.1 mph - 0.02 in   Unknown
10:00 PM 32.0 °F 25.6 °F 31.8 °F 99% 29.89 in - ENE 6.9 mph 19.6 mph N/A   Unknown
11:00 PM 32.0 °F 26.4 °F 31.8 °F 99% 29.93 in - ENE 5.8 mph - N/A   Unknown